Back to catalog

NSS 5

INTELSAT 803

AliveCommunicationsGEO
NORAD 24957·PAYLOAD·🇳🇱 Netherlands

Launched Sep 23, 1997 from Guiana Space Centre

Loading…

TLE

FreshSource: Space-Track

Epoch: Sep 14, 2026, 12:01 UTC

1 24957U 97053A   26257.50103749  .00000050  00000-0  00000-0 0  9997
2 24957  10.7138  47.1052 0005723 205.2398 164.6394  0.99101839105845

Track NSS 5 in real time with AllMySat

Download on the App Store